Home > Weather > Boa Vista > Past weeks

Flag for Brazil Weather for the Past 2 Weeks in Boa Vista, Roraima, Brazil

Now
72 °F

Broken clouds.


Feels Like: 67 °F
Forecast: 75 / 87 °F
Wind: 2 mph from South

Location: Boa Vista Aeropor-To

Current Time: May 6, 2016 at 7:32:40 AM

Latest Report: May 6, 2016 at 7:00 AM


Visibility: N/A

Pressure: 29.95 "Hg

Humidity: 94%

Dew Point: 70 °F

Location of Boa VistaLocation

Historic Weather in Boa Vista — Graph

°F

Boa Vista Temperature Yesterday

Maximum temperature yesterday: 77 °F (at 12:00 AM)
Minimum temperature yesterday: 39 °F (at 8:00 AM)
Average temperature yesterday: 67 °F

High & Low Weather Summary for the Past Weeks

 TemperatureHumidityPressure
High91 °F (Apr 26, 3:00 PM)100% (Apr 22, 11:00 AM)30.01 "Hg (Apr 22, 11:00 AM)
Low34 °F (May 1, 2:00 PM)46% (Apr 26, 3:00 PM)29.68 "Hg (Apr 26, 4:00 PM)
Average77 °F78%29.87 "Hg
* Reported Apr 21 9:00 AM — May 6 6:00 AM, Boa Vista, Weather by CustomWeather, © 2016

Note: Actual official high and low records may vary slightly from our data, if they occured in-between our weather recording intervals... More about our weather records

Advertising

Boa Vista Weather History for the Previous 24 Hours

Scroll right to see more
 ConditionsComfort  
Time TempWeatherWind HumidityBarometerVisibility
6:00 AM
Fri, May 6
72 °FBroken clouds.2 mph94%29.92 "HgN/A
5:00 AM72 °FPassing clouds.1 mph94%29.89 "HgN/A
4:00 AM72 °FPassing clouds.3 mph94%29.89 "HgN/A
2:00 AM72 °FPassing clouds.1 mph94%29.89 "HgN/A
1:00 AM72 °FPassing clouds.2 mph94%29.89 "HgN/A
12:00 AM72 °FThunderstorms. Partly cloudy.1 mph94%29.92 "HgN/A
11:00 PM
Thu, May 5
72 °FPassing clouds.No wind94%29.95 "HgN/A
10:00 PM73 °FPassing clouds.3 mph89%29.95 "HgN/A
9:00 PM73 °FPassing clouds.1 mph89%29.92 "HgN/A
8:00 PM73 °FThundershowers. Passing clouds.3 mph89%N/AN/A
7:00 PM73 °FPassing clouds.5 mph89%29.89 "HgN/A
6:00 PM73 °FPartly sunny.7 mph89%29.86 "HgN/A
5:00 PM75 °FPartly sunny.8 mph83%29.86 "HgN/A
4:00 PM75 °FPartly sunny.8 mph83%29.86 "HgN/A
3:00 PM75 °FBroken clouds.9 mph83%29.86 "HgN/A
2:00 PM39 °FScattered showers. Partly sunny.9 mph100%29.92 "HgN/A
1:00 PM41 °FScattered showers. Broken clouds.7 mph100%29.95 "HgN/A
12:00 PM39 °FScattered showers. Broken clouds.6 mph100%29.98 "HgN/A
10:00 AM77 °FSprinkles. Partly sunny.3 mph83%29.98 "Hg6 mi
9:00 AM41 °FScattered showers. Broken clouds.5 mph100%29.98 "HgN/A
8:00 AM39 °FScattered showers. Broken clouds.3 mph100%29.95 "HgN/A
7:00 AM75 °FSprinkles. Partly sunny.5 mph89%N/AN/A
Weather by CustomWeather, © 2016

See weather overviewHow to use our weather pages